Location: Newark
(44.3867°N, 6.6531°E)
Time: 07:23:13
(UTC+00:00)

Envisat - Pass Details

Date: 27 January 2020
Orbit: 764 x 766 km, 98.1° (Epoch: 20 February)

Event Time Altitude Azimuth Distance (km) Brightness Sun altitude
Rises 17:52:50 0° 184° (S) 3,219 6.4 -14.0°
Reaches altitude 10° 17:55:14 10° 191° (S) 2,297 5.8 -14.4°
Maximum altitude 18:00:03 43° 262° (W) 1,073 4.3 -15.2°
Drops below altitude 10° 18:04:53 10° 334° (NNW) 2,312 5.7 -16.1°
Sets 18:07:19 0° 341° (NNW) 3,243 6.4 -16.5°
